Timeline UpdatesTrip UpdatesNews PostsPvt Posts♥♥Travel TipsAdmin PostsConv PostsFollowed PostsChat RequestsBlog PostsPNR Posts

Disclaimer
Search
 
 
Fri Oct 31, 2014 11:09:05 ISTHomeTrainsΣChainsAtlasPNRForumGalleryNewsFAQTripsMembersLoginFeedback
No Recent News for this Train
Other Trains in the News **new
Latest...
⇐ Return Journey: Train# 54378

54377/Prayag-Bareilly Passenger (UnReserved)

Time-Table HAS CHANGED.
Sep 03 2014 (9:27AM)
Change Departure Station:
Change Arrival Station:
Post a Train Travel TipPost a Train Travel Tip **new
Post a Comment/Question/Picture/VideoPost a Comment/Question/Picture/Video
Pantry/Catering
???
RSA - Rake Sharing
Rake/Coach Composition
Loco
News    PNR    Forum    Time-Table    Availability    Fare Chart    Map    Arr/Dep History    Trips    Gallery    ΣChains    X/O    Timeline    
Travel Time: 5h 23m    22 halts    Distance: 150 km    Avg Speed: 27 km/hr
Type: Passenger
Zone: NR/Northern
Departs @ 10:27 (Avg 1h 14m late)
Platform# ???
SMTWTFS
Masit/MST 
Arrives @ 15:50 (Avg 1h 4m late)
Platform# 3
SMTWTFS
Bareilly Junction/BE 

22 halts. 24 intermediate Stations between Masit and Bareilly Junction

Show ALL intermediate Stations  Show Old Time-Table

#TrkCodeStation NameX/OArrivesAvgDepartsAvgHaltPFDay#KmSpeedElevZoneAddress
1|--|ARPAtrampur  02:25 01:01+502:26 01:03+61 2m--1-258.553105mNRAtrampur Railway Station, Uttar Pradesh
2%--%RMCRam Chaura Road  02:34 01:11+702:35 01:13+81 2m--1-251.552103mNRAnapur - Mansurabad Road, Uttar Pradesh
3%--%LGOLalgopalGanj  02:43 01:21+802:44 01:23+71 2m--1-244.655104mNRLal Gopalganj, Uttar Pradesh
4%--%BHDRBhadri  02:52 01:31+702:53 01:33+61 2m--1-237.243106mNRNational Highway 24B, Uttar Pradesh
5%--%KHNMKunda Harnamganj (2)  03:02 01:43+403:03 01:45+41 2m--1-230.147110mNRKunda, Uttar Pradesh
6%--%GRMRGarhi Manikpur  03:15 02:00+303:16 02:02+51 2m--1-218.339113mNRGarhi Manikpur, Uttar Pradesh
7%--%PQNPariawan Kalakankar Road  03:25 02:13+403:26 02:15+41 2m--1-211.143115mNRPwn Klaknder Rd, Uttar Pradesh
8%--|ARKAArkha  03:35 02:27+203:36 02:29+21 2m--1-202.515115mNRLucknow Allahabad Rd, Uttar Pradesh
9|--|UCRUnchahar Junction  03:44 02:38+303:45 02:40+61 2m--1-200.252116mNRUnchahar, Uttar Pradesh
10|--|RCPRamachandrapur  03:56 02:53-03:57 02:55-1 2m--1-189.028114mNRLucknow Allahabad Rd, Uttar Pradesh
11|--|LMNLachhmanpurX  04:05 03:08+104:06 03:10+121 2m--1-183.032119mNRUnchahar, Uttar Pradesh
12|--|DYPDaryapur Junction  04:19 03:38+404:20 03:40+121 2m--1-168.318115mNRNational Highway 24B, Uttar Pradesh
13|--|RBLRae Bareli Junction (4)X  04:35 04:00+804:40 04:33+45 33m--1-162.446116mNRRaebareli, Uttar Pradesh
14!==!GANGGangaGanj (2)  04:51 04:43+404:52 04:45+81 2m--1-154.760118mNRBachhrawan, Uttar Pradesh
15!==!HCPHarchandpur (3)  04:58 04:52+804:59 04:54+91 2m--1-147.642118mNRRae Bareli, Uttar Pradesh
16!==!KVGKundanganj (2)  05:07 05:03+805:08 05:05+81 2m--1-141.352119mNRHarchandpur, Uttar Pradesh
17!==!BCNBachhrawan (2)X  05:19 05:16+805:20 05:18+131 2m--1-131.714124mNRLucknow, Uttar Pradesh
18!==!SAGRShrirajnagar (1)X  05:44 05:43-205:45+121 2m11-126.020122mNRMohanlalGanj, Uttar Pradesh
19!==!NHNNigohan (1)X  06:04 06:03+306:05+101 2m11-120.119120mNRLucknow, Uttar Pradesh
20!==!KKAHKankaha (1)  06:28 06:27-106:29+81 2m11-113.140125mNRBachhrawan, Uttar Pradesh
21!==!MLJMohanlalGanj (1)  06:42 06:41+906:43+121 2m11-105.132124mNRMohanlalganj, Uttar Pradesh
22!==/UTRUtraitia Junction (2)  07:00 06:59+1207:01+301 2m--1-96.719124mNRLucknow, Uttar Pradesh
23/==/BHAWBlock Hut A new halt!!X  07:15+2807:17+292m--1-92.219121mNRLucknow, Uttar Pradesh
24/==/LBHDilkusha Cabin new halt!!  07:28+4507:30+482m--1-88.717122mNRLucknow, Uttar Pradesh
25/==/LKOLucknow Charbagh NR (9)XO  07:45+4708:20+4335m51-84.523 NR226004, Uttar Pradesh
26/==/AMGAlamnagar (3)X  08:37 08:38+2408:38 08:39+261m--1-77.565126mNRLucknow, Uttar Pradesh
27/==/KKJKakori (3)X  08:47 08:46+4808:48+481 2m--1-69.964129mNRSH 25, Uttar Pradesh
28/==/MLDMalihabadX  08:58 08:57+4808:59+491 2m--1-60.349130mNRMalihabad, Uttar Pradesh
29/==/DILDilawarnagarX  09:07 09:06+4909:08+491 2m--1-54.646133mNRSH 25, Uttar Pradesh
30/==/RBDRahimabadX  09:17 09:18+5909:18 09:20+591 2m--1-47.066132mNRSH 25, Uttar Pradesh
31/==/SANSandila (3)  09:29 09:30+5809:30 09:32+591 2m--1-36.045132mNRSandila, Uttar Pradesh
32/==/UTAUmar TaliO  09:36 09:39+5909:37 09:41+591 2m--1-30.748135mNRHardoi, Uttar Pradesh
33/==/DLQDalelnagar  09:46 09:49+5709:47 09:51+571 2m--1-24.352136mNRSH 25, Uttar Pradesh
34/==/BLMBalamau Junction (4)X  09:53 10:01+5909:58 10:06+1:085m--1-15.758139mNRBalamau, Uttar Pradesh
35/==/BGHBaghauliX  10:11 10:15+1:0710:12 10:17+1:071 2m--1-6.952141mNRsharda nehar, Uttar Pradesh
36/==/MSTMasit»  10:21 10:25+1:1010:22 10:27+1:141 2m--10.056141mNRSH 25, Uttar Pradesh
37/==/KARKarnaX  10:31 10:35+1:1310:32 10:37+1:131 2m--17.559143mNRHardoi, Uttar Pradesh
38/==/HRIHardoi (5)  10:43 10:47+1:0210:44 10:52+1:031 5m--117.456146mNRHardoi, Uttar Pradesh
39/==/KUFKaurhaX  10:57 11:01+1:1210:58 11:03+1:121 2m--125.859148mNRSH 25, Uttar Pradesh
40/==/BEGBehtagokul  11:08 11:12+1:1011:09 11:14+1:111 2m--134.655152mNRBehtagokul, Uttar Pradesh
41/==/TDPTodarpur  11:17 11:21+1:1111:18 11:23+1:111 2m--141.131147mNRSH 25, Uttar Pradesh
42/==/SHRMSharmaX  11:24 11:28-11:25 11:29-1m--143.651150mNRSH 25, Uttar Pradesh
43/==/AJIAnjhi ShahabadX  11:32 11:36+5311:33 11:38+531 2m--149.554148mNRAnjhi Shahabad, Uttar Pradesh
44/==/AIGAlgawan  11:41 11:45+1:1211:42 11:47+1:121 2m--155.864152mNRAlgawan, Uttar Pradesh
45/==/KHKahiliya  11:51 11:55+1:1211:52 11:57+1:131 2m--164.444152mNRSH 25, Uttar Pradesh
46/==/PRPMPt Ram Prasad Bismil new halt!!  12:03+1:1012:04+1:201m--168.88154mNRState Highway 25, Uttar Pradesh
47/==/ROZARoza Junction (4)X  12:36 12:37+5312:37 12:39+1:131 2m--172.948156mNRShahjahanpur, Uttar Pradesh
48/==/SXKShahjahanpur CourtX  12:45 12:46+1512:46 12:47+151m--178.67160mNRShahjahanpur, Uttar Pradesh
49/==/SPNShahjahanpur Junction (3)X  12:55+2913:00+295m--179.556156mNRShahjahanpur, Uttar Pradesh
50/==/BTRABanthraO  13:09+1:1013:10 13:11+1:111 2m--187.942154mNRNH 24, Uttar Pradesh
51/==/BHDHBahadurpur HaltX  13:17 13:19-13:18 13:20-1m--193.535154mNRNH 24, Uttar Pradesh
52/==/TLHTilhar  13:25 13:27+1:0713:26 13:29+1:071 2m--197.758163mNRTilhar, Uttar Pradesh
53/==/MKMiranpur Katra  13:36 13:39+1:0713:37 13:41+1:111 2m--1107.439162mNRShahjahanpur, Uttar Pradesh
54/==/BLPUBilpur  13:46 13:52+1:1213:47 13:54+1:221 2m--1114.647161mNRFatehganj, Uttar Pradesh
55/==/TSATisuaXO  13:56 14:03+1:2013:57 14:04+1:211m--1121.651165mNRNational Highway 24, Uttar Pradesh
56/==/PMRPitambarpur (3)  14:07 14:14+1:5214:08 14:16+1:521 2m--1130.157171mNRPitambarpur, Uttar Pradesh
57/==/RYSRasuriyaX  14:18 14:26+1:1914:19 14:28+1:201 2m--1139.650174mNRNH 24, Uttar Pradesh
58/==/CHTIChanehti Junction  14:28 14:36+1:0514:29 14:38+1:051 2m--1146.33168mNRBareilly, Uttar Pradesh
59/==/BEBareilly Junction (4)•  15:10 15:50+1:04-31150.0-174mNRBareilly, Uttar Pradesh
Scroll to Top
Scroll to Bottom